Weather in Silver City

United States     32°46′09″N   108°16′28″W
temp.,
°C
wind,
m/s
gust,
m/s
humid.,
%
clouds,
%
prec.,
mm/h
press.,
hPa
HPBL,
m
25 may, wed
wed2500:00+13n33130 0.0 101213
03:00+11nw22155 0.0 101110
06:00+10nnw331680 0.0 101414
09:00+19nnw35125 0.0 1014802
12:00+24wnw68115 0.0 10112479
15:00+27w79100 0.0 10083137
18:00+26w1010100 0.0 10082225
21:00+19wnw46160 0.0 101158
26 may, thu
thu2600:00+17nw44190 0.0 101337
03:00+15n33220 0.0 101315
06:00+14n33220 0.0 101414
09:00+24n24130 0.0 1014678
12:00+28s33100 0.0 10123332
15:00+30sw8691 0.0 10103999
18:00+29wsw7690 0.0 10103149
21:00+20nw22160 0.0 101211
27 may, fri
fri2700:00+19n33160 0.0 101312
03:00+17nnw33200 0.0 101412
06:00+16nnw33220 0.0 101514
09:00+25wnw34150 0.0 1014490
12:00+29wsw68100 0.0 10133024
15:00+30wsw91095 0.0 10113373
18:00+29w68105 0.0 10094041
21:00+22wnw4413100 0.0 101029
28 may, sat
sat2800:00+19wnw332179 0.0 101118
03:00+16nw222683 0.0 101111
06:00+14nw11315 0.0 101111
09:00+23sw36145 0.0 10101058
12:00+27sw814105 0.0 10082511
15:00+30wsw1314657 0.0 10053330
18:00+28w11134100 0.0 10043024
21:00+21w714797 0.0 1006250
29 may, sun
sun2900:00+16w44114 0.0 100739
03:00+14wnw33192 0.0 100617
06:00+12w22250 0.0 100610
09:00+20wsw812151 0.0 10061143
12:00+24wsw1013105 0.0 10031940
15:00+27wsw1215105 0.0 10002929
18:00+26wsw1316125 0.0 9993180
21:00+20wsw1117241 0.0 1002622